Home   Weather   Poznan   Past weeks

Flag for Poland Past Weather in Poznan, Poland — Yesterday and Last 2 Weeks

52 °F


Feels Like: 51 °F
Forecast: 43 / 53 °F
Wind: 5 mph from Southeast

Location: Poznan Airport

Current Time: Oct 23, 2016 at 2:02:15 PM

Latest Report: Oct 23, 2016 at 1:30 PM

Visibility: 10 mi

Pressure: 30.07 "Hg

Humidity: 72%

Dew Point: 43 °F

Location of PoznanLocation

Past Weather in Poznan — Graph


Poznan Temperature Yesterday

Maximum temperature yesterday: 52 °F (at 1:30 PM)
Minimum temperature yesterday: 37 °F (at 9:00 PM)
Average temperature yesterday: 45 °F

High & Low Weather Summary for the Past Weeks

High55 °F (Oct 14, 2:30 PM)100% (Oct 9, 1:00 AM)30.42 "Hg (Oct 9, 1:00 AM)
Low36 °F (Oct 14, 3:00 AM)51% (Oct 14, 2:30 PM)29.92 "Hg (Oct 21, 4:30 AM)
Average45 °F89%30.12 "Hg
* Reported Oct 8 12:00 PM — Oct 23 12:30 PM, Poznan, Weather by CustomWeather, © 2016

Note: Actual official high and low records may vary slightly from our data, if they occured in-between our weather recording intervals... More about our weather records


Poznan Weather History for the Previous 24 Hours

Scroll right to see more
Time TempWeatherWind HumidityBarometerVisibility
12:30 PM
Sun, Oct 23
48 °FSunny.7 mph76%30.07 "Hg10 mi
12:00 PM46 °FSunny.7 mph82%30.07 "Hg10 mi
11:30 AM45 °FSunny.5 mph87%30.07 "Hg10 mi
11:00 AM43 °FClear.6 mph93%30.07 "Hg5 mi
10:30 AM43 °FClear.3 mph93%30.07 "Hg4 mi
10:00 AM43 °FClear.3 mph87%30.07 "Hg4 mi
9:30 AM41 °FClear.3 mph93%30.07 "Hg4 mi
9:00 AM41 °FClear.2 mph93%30.04 "Hg4 mi
8:30 AM41 °FClear.5 mph93%30.04 "Hg4 mi
8:00 AM41 °FFog.6 mph93%30.04 "Hg3 mi
7:30 AM41 °FClear.6 mph93%30.04 "Hg4 mi
7:00 AM41 °FClear.5 mph93%30.04 "Hg4 mi
6:30 AM41 °FFog.3 mph93%30.04 "Hg3 mi
6:00 AM39 °FFog.5 mph100%30.01 "Hg3 mi
5:30 AM39 °FClear.3 mph100%30.01 "Hg2 mi
5:00 AM41 °FFog.3 mph93%30.01 "Hg2 mi
4:30 AM41 °FFog.3 mph93%30.01 "Hg2 mi
4:00 AM41 °FFog.3 mph100%30.01 "Hg2 mi
3:30 AM41 °FFog.2 mph100%30.01 "Hg2 mi
3:00 AM41 °FFog.3 mph93%30.01 "Hg1 mi
2:30 AM41 °FFog.2 mph100%30.01 "Hg2 mi
2:00 AM39 °FFog.3 mph100%30.01 "Hg2 mi
1:30 AM39 °FFog.2 mph100%30.01 "Hg2 mi
1:00 AM39 °FFog.1 mph100%30.01 "Hg2 mi
12:30 AM39 °FFog.2 mph93%30.01 "Hg1 mi
12:00 AM39 °FFog.2 mph93%30.01 "Hg1 mi
11:30 PM
Sat, Oct 22
39 °FFog.2 mph93%30.01 "Hg1 mi
11:00 PM37 °FFog.3 mph100%30.01 "Hg1 mi
10:30 PM37 °FFog.5 mph100%30.01 "Hg1 mi
10:00 PM37 °FFog.3 mph100%29.98 "Hg1 mi
9:30 PM37 °FFog.2 mph100%29.98 "Hg1 mi
9:00 PM37 °FFog.2 mph100%29.98 "Hg1 mi
8:30 PM39 °FFog.1 mph93%29.98 "Hg1 mi
8:00 PM39 °FFog.3 mph100%29.98 "Hg4 mi
7:30 PM41 °FFog.2 mph93%29.98 "Hg3 mi
7:00 PM43 °FPassing clouds.3 mph93%29.98 "Hg4 mi
6:30 PM45 °FFog.1 mph87%29.98 "Hg3 mi
6:00 PM45 °FPassing clouds.No wind87%29.98 "Hg5 mi
5:30 PM46 °FPartly sunny.1 mph82%29.98 "HgN/A
5:00 PM46 °FPartly sunny.2 mph82%29.95 "HgN/A
4:30 PM48 °FSprinkles. Scattered clouds.6 mph82%29.95 "HgN/A
4:00 PM48 °FPartly sunny.5 mph76%29.95 "HgN/A
3:30 PM48 °FPartly sunny.5 mph76%29.95 "HgN/A
3:00 PM48 °FScattered clouds.2 mph71%29.95 "HgN/A
2:30 PM50 °FScattered clouds.3 mph71%29.95 "HgN/A
2:00 PM50 °FPartly sunny.6 mph67%29.95 "HgN/A
Weather by CustomWeather, © 2016

See weather overviewHow to use our weather pages